[[{"header":{"parameterUnit":"m.s-1","parameterCategory":1,"la1":30.2992,"la2":30.254,"lo1":-89.0895,"lo2":-89.0443,"dy":0.0025,"dx":0.0025,"nx":19,"ny":19,"refTime":"2026-04-16T21:00:00:Z","depth":0,"parameterNumber":2,"parameterNumberName":"U-component_of_WINDS"},"data":[0,0,0,-1.1211,-1.121,-1.1162,-1.1161,-1.1109,-1.1109,0,0,0,0,0,0,0,0,0,0,0,-1.1232,-1.1232,-1.1211,-1.121,-1.1162,-1.1161,-1.1109,-1.1109,0,0,0,0,0,0,0,0,0,0,0,-1.1232,-1.1232,-1.1232,-1.121,-1.1162,-1.1161,-1.1109,-1.1142,0,0,0,0,0,0,0,0,0,0,-1.1187,-1.1214,-1.1232,-1.1232,-1.121,-1.1162,-1.1161,-1.1144,-1.114,-1.1136,0,-1.1135,0,-1.1121,-1.1106,-1.1106,0,0,0,-1.1204,-1.1217,-1.1198,-1.1232,-1.1209,-1.1162,-1.1182,-1.1141,-1.1138,-1.1131,-1.1134,-1.1132,-1.112,-1.1106,-1.1106,-1.1103,-1.1103,0,0,-1.1207,-1.1227,-1.1201,-1.1196,-1.1205,-1.1183,-1.118,-1.1139,-1.1143,-1.1134,-1.113,-1.1119,-1.1106,-1.1105,-1.1103,-1.1103,0,0,0,-1.1219,-1.1229,-1.1211,-1.1198,-1.1189,-1.1182,-1.1179,-1.1144,-1.1137,-1.113,-1.1119,-1.1105,-1.1105,-1.1102,-1.1103,-1.1135,0,0,0,-1.122,-1.1236,-1.1212,-1.1224,-1.119,-1.1166,-1.1185,-1.114,-1.1134,-1.1119,-1.1105,-1.1104,-1.1102,-1.1103,-1.1134,-1.1147,0,0,0,-1.1233,-1.1237,-1.1233,-1.1225,-1.1205,-1.1166,-1.1156,-1.1138,-1.1128,-1.1106,-1.1104,-1.1102,-1.1102,-1.1132,-1.1144,-1.1152,0,0,0,-1.1252,-1.1261,-1.1234,-1.1239,-1.1206,-1.1188,-1.1156,-1.1141,-1.1126,-1.1105,-1.1102,-1.1103,-1.1132,-1.1143,-1.1151,-1.1162,-1.1169,0,0,-1.1274,-1.1264,-1.1266,-1.124,-1.1232,-1.1193,-1.1189,-1.1156,-1.1135,-1.1115,-1.1114,-1.1134,-1.1144,-1.1152,-1.12,-1.1206,0,0,0,-1.128,-1.1281,-1.1275,-1.1262,-1.1238,-1.1218,-1.1184,-1.1171,-1.1154,-1.1129,-1.1139,-1.1144,-1.1148,-1.1152,-1.1157,-1.1159,-1.1106,-1.1106,-1.1106,-1.1338,-1.1312,-1.1314,-1.1283,-1.1271,-1.1236,-1.1224,-1.1201,-1.1177,-1.118,-1.1174,-1.1207,-1.1213,-1.1216,-1.1218,-1.1178,-1.1178,-1.1178,-1.1178,-1.1367,-1.1365,-1.1336,-1.1326,-1.1299,-1.129,-1.1258,-1.1242,-1.1229,-1.1209,-1.1211,-1.119,-1.1223,-1.1223,-1.118,-1.118,-1.118,-1.118,-1.1179,-1.1402,-1.1397,-1.1383,-1.1364,-1.1351,-1.1319,-1.1309,-1.1284,-1.1261,-1.1263,-1.1254,-1.1253,-1.1249,-1.126,-1.1261,-1.1261,-1.1261,-1.1261,-1.1261,-1.1444,-1.1427,-1.1423,-1.14,-1.1389,-1.1372,-1.1338,-1.1327,-1.1307,-1.129,-1.129,-1.1266,-1.1231,-1.1223,-1.1262,-1.1262,-1.1262,-1.1262,-1.1262,-1.1482,-1.147,-1.1463,-1.1453,-1.1424,-1.1414,-1.1383,-1.1362,-1.1349,-1.1345,-1.1321,-1.13,-1.1287,-1.1283,-1.1276,-1.1327,-1.1327,-1.1327,-1.1327,-1.1512,-1.1504,-1.1492,-1.1477,-1.146,-1.1432,-1.1424,-1.1399,-1.137,-1.136,-1.135,-1.1338,-1.1335,-1.1324,-1.132,-1.1312,-1.1371,-1.1372,-1.1372,-1.1534,-1.1524,-1.1522,-1.1496,-1.1472,-1.1452,-1.1444,-1.1428,-1.1392,-1.1373,-1.1352,-1.135,-1.1332,-1.1327,-1.1306,-1.1299,-1.1285,0,0]},{"header":{"parameterUnit":"m.s-1","parameterCategory":1,"la1":30.2992,"la2":30.254,"lo1":-89.0895,"lo2":-89.0443,"dy":0.0025,"dx":0.0025,"nx":19,"ny":19,"refTime":"2026-04-16T21:00:00:Z","depth":0,"parameterNumber":3,"parameterNumberName":"V-component_of_WINDS"},"data":[0,0,0,3.9367,3.9366,3.935,3.935,3.9353,3.9353,0,0,0,0,0,0,0,0,0,0,0,3.9385,3.9386,3.9367,3.9366,3.935,3.935,3.9353,3.9353,0,0,0,0,0,0,0,0,0,0,0,3.9385,3.9386,3.9386,3.9366,3.935,3.935,3.9353,3.9357,0,0,0,0,0,0,0,0,0,0,3.9369,3.9399,3.9385,3.9386,3.9366,3.935,3.935,3.9357,3.9357,3.9371,0,3.9386,0,3.937,3.9355,3.9355,0,0,0,3.9356,3.94,3.9383,3.9386,3.9366,3.935,3.9355,3.9356,3.9357,3.9371,3.9386,3.9385,3.937,3.9355,3.9355,3.9468,3.9469,0,0,3.9357,3.939,3.9383,3.9383,3.9386,3.9355,3.9354,3.9356,3.9375,3.9386,3.9385,3.937,3.9355,3.9356,3.9467,3.9468,0,0,0,3.9367,3.9391,3.9373,3.9384,3.9379,3.9355,3.9354,3.9375,3.9366,3.9385,3.937,3.9356,3.9356,3.9466,3.9467,3.9548,0,0,0,3.9367,3.9396,3.9374,3.9394,3.9379,3.9376,3.9373,3.9366,3.9365,3.937,3.9356,3.9356,3.9464,3.9467,3.9543,3.9581,0,0,0,3.9382,3.9398,3.94,3.9396,3.939,3.9376,3.9367,3.9365,3.9357,3.9355,3.9356,3.9464,3.9466,3.9539,3.9574,3.962,0,0,0,3.9407,3.9472,3.9402,3.9469,3.939,3.9426,3.9366,3.9391,3.9399,3.9356,3.9465,3.9467,3.9538,3.957,3.9616,3.9665,3.9688,0,0,3.9508,3.9486,3.9523,3.9459,3.9515,3.9425,3.9494,3.947,3.9441,3.9461,3.9463,3.9545,3.9573,3.9619,3.9808,3.9827,0,0,0,3.9566,3.9593,3.9601,3.961,3.9593,3.9583,3.9546,3.9537,3.9552,3.9458,3.9573,3.9589,3.9614,3.9636,3.9652,3.9672,3.9479,3.9478,3.9478,3.9755,3.9713,3.9772,3.9729,3.9739,3.97,3.9704,3.9686,3.9642,3.967,3.9675,3.9795,3.9822,3.9833,3.9855,3.9698,3.9698,3.9698,3.9699,3.9899,3.9931,3.987,3.9905,3.9861,3.9891,3.9857,3.9824,3.9846,3.9787,3.9807,3.9747,3.9855,3.9872,3.9704,3.9703,3.9702,3.9702,3.9702,4.0018,4.0026,4.0014,4.0023,4.0035,3.999,4.0013,3.9972,3.9934,3.9954,3.9956,3.9955,3.9948,3.9958,3.9958,3.9959,3.9959,3.996,3.996,4.0146,4.013,4.0155,4.0144,4.0144,4.014,4.0103,4.0103,4.0092,4.0061,4.006,4.0014,3.9873,3.9839,3.9966,3.9965,3.9964,3.9964,3.9963,4.0307,4.0264,4.0302,4.0303,4.0287,4.0302,4.025,4.0253,4.0247,4.026,4.0209,4.0112,4.0087,4.0074,4.0045,4.0218,4.0218,4.0218,4.0218,4.0408,4.0391,4.0421,4.0425,4.0424,4.0381,4.0426,4.0399,4.0363,4.0357,4.0326,4.0285,4.0273,4.0255,4.0238,4.021,4.0421,4.0421,4.0421,4.0505,4.0486,4.0532,4.0496,4.0481,4.0469,4.051,4.0518,4.0469,4.0429,4.0352,4.0343,4.0275,4.0256,4.0214,4.0188,4.0137,0,0]}]]